Greensboro, NC

2:43 PM EST on January 21, 2017 (GMT -0500)
Piedmont Triad International Airport

Weather History for KGSO - August, 2013

Change the Weather History Date:

Thursday, August 22, 2013

  Actual Average Record
Temperature  
Mean Temperature 78 °F 77 °F  
Max Temperature 87 °F 86 °F 100 °F (1983)
Min Temperature 69 °F 68 °F 50 °F (1922)
Degree Days  
Heating Degree Days 0 0  
Month to date heating degree days 2 0  
Since 1 June heating degree days 2 6  
Since 1 July heating degree days 2 0  
Cooling Degree Days 13 12  
Month to date cooling degree days 221 279  
Year to date cooling degree days 1070 1164  
Since 1 June cooling degree days 920 1005  
Growing Degree Days 29 (Base 50)    
Moisture  
Dew Point 69 °F    
Average Humidity 78    
Maximum Humidity 100    
Minimum Humidity 55    
Precipitation  
Precipitation 0.00 in 0.13 in 2.96 in (1931)
Month to date precipitation 5.32 2.71  
Year to date precipitation 38.06 27.62  
Sea Level Pressure  
Sea Level Pressure 30.10 in    
Wind  
Wind Speed 5 mph (WSW)    
Max Wind Speed 13 mph    
Max Gust Speed 17 mph    
Visibility 8 miles    
Events      
T = Trace of Precipitation, MM = Missing Value Source: NWS Daily Summary

Daily Weather History Graph

Daily Weather History Graph

Search for Another Location

Airport or City:

Trip Planner

Search our weather history database for the weather conditions in past years. The results will help you decide how hot, cold, wet, or windy it might be!

Date:

Astronomy

Aug. 22, 2013 Rise Set
Actual Time 6:43 AM EDT 8:00 PM EDT
Civil Twilight 6:17 AM EDT 8:27 PM EDT
Nautical Twilight 5:45 AM EDT 8:59 PM EDT
Astronomical Twilight 5:11 AM EDT 9:32 PM EDT
Moon 8:50 PM EDT (8/22) 8:25 AM EDT (8/22)
Length of Visible Light 14h 10m
Length of Day
13h 16m
Waning Gibbous, 97% of the Moon is Illuminated
Aug 22
Waning Gibbous
Aug 28
Last Quarter
Sep 5
New
Sep 12
First Quarter
Sep 19
Full

Hourly Weather History & Observations

Time (EDT) Temp. Heat Index Dew Point Humidity Pressure Visibility Wind Dir Wind Speed Gust Speed Precip Events Conditions
12:54 AM 73.9 °F - 73.0 °F 97% 30.13 in 9.0 mi West 4.6 mph - N/A   Overcast
1:54 AM 73.0 °F - 71.1 °F 93% 30.13 in 8.0 mi WSW 4.6 mph - N/A   Mostly Cloudy
2:24 AM 71.6 °F - 71.6 °F 100% 30.15 in 7.0 mi SSW 4.6 mph - N/A   Mostly Cloudy
2:54 AM 72.0 °F - 70.0 °F 93% 30.12 in 10.0 mi SSW 5.8 mph - N/A   Mostly Cloudy
3:54 AM 72.0 °F - 70.0 °F 93% 30.11 in 10.0 mi SSW 8.1 mph - N/A   Mostly Cloudy
4:19 AM 71.6 °F - 69.8 °F 94% 30.15 in 10.0 mi WSW 5.8 mph - N/A   Mostly Cloudy
4:30 AM 71.6 °F - 69.8 °F 94% 30.14 in 10.0 mi SW 8.1 mph - N/A   Overcast
4:54 AM 72.0 °F - 70.0 °F 93% 30.11 in 7.0 mi SW 8.1 mph - N/A   Overcast
5:03 AM 71.6 °F - 69.8 °F 94% 30.14 in 7.0 mi WSW 8.1 mph - N/A   Overcast
5:54 AM 71.1 °F - 70.0 °F 96% 30.11 in 6.0 mi West 8.1 mph - N/A   Overcast
6:54 AM 71.1 °F - 70.0 °F 96% 30.12 in 6.0 mi West 4.6 mph - N/A   Overcast
7:28 AM 71.6 °F - 69.8 °F 94% 30.15 in 5.0 mi West 5.8 mph - N/A   Overcast
7:40 AM 71.6 °F - 69.8 °F 94% 30.15 in 2.0 mi WSW 5.8 mph - N/A   Overcast
7:54 AM 71.1 °F - 70.0 °F 96% 30.13 in 2.0 mi WSW 4.6 mph - N/A   Overcast
8:26 AM 71.6 °F - 69.8 °F 94% 30.16 in 3.0 mi WSW 4.6 mph - N/A   Overcast
8:54 AM 73.0 °F - 70.0 °F 90% 30.14 in 7.0 mi WSW 5.8 mph - N/A   Overcast
9:21 AM 75.2 °F - 69.8 °F 83% 30.16 in 7.0 mi West 5.8 mph - N/A   Mostly Cloudy
9:54 AM 75.9 °F - 70.0 °F 82% 30.14 in 6.0 mi WSW 5.8 mph - N/A   Haze
10:05 AM 77.0 °F - 69.8 °F 78% 30.16 in 7.0 mi West 5.8 mph - N/A   Scattered Clouds
10:54 AM 80.1 °F 82.9 °F 69.1 °F 69% 30.13 in 10.0 mi Variable 3.5 mph - N/A   Partly Cloudy
11:54 AM 82.0 °F 84.5 °F 66.9 °F 60% 30.12 in 10.0 mi Variable 3.5 mph - N/A   Partly Cloudy
12:54 PM 82.9 °F 85.8 °F 68.0 °F 60% 30.10 in 10.0 mi WNW 3.5 mph - N/A   Scattered Clouds
1:54 PM 84.9 °F 87.1 °F 66.0 °F 53% 30.08 in 10.0 mi Variable 4.6 mph - N/A   Mostly Cloudy
2:54 PM 84.0 °F 86.3 °F 66.0 °F 55% 30.05 in 10.0 mi Calm Calm - N/A   Mostly Cloudy
3:54 PM 82.9 °F 85.4 °F 66.9 °F 58% 30.02 in 10.0 mi West 5.8 mph - N/A   Mostly Cloudy
4:54 PM 84.0 °F 86.5 °F 66.9 °F 56% 30.01 in 10.0 mi West 3.5 mph - N/A   Mostly Cloudy
5:54 PM 82.9 °F 86.5 °F 69.1 °F 63% 30.00 in 10.0 mi North 3.5 mph - N/A   Mostly Cloudy
6:54 PM 82.0 °F 85.9 °F 70.0 °F 67% 30.00 in 10.0 mi Calm Calm - N/A   Mostly Cloudy
7:54 PM 81.0 °F 84.9 °F 71.1 °F 72% 30.01 in 10.0 mi Calm Calm - N/A   Mostly Cloudy
8:54 PM 75.9 °F - 70.0 °F 82% 30.03 in 10.0 mi WNW 5.8 mph - N/A   Partly Cloudy
9:54 PM 73.9 °F - 68.0 °F 82% 30.05 in 10.0 mi WSW 9.2 mph - N/A   Scattered Clouds
10:54 PM 72.0 °F - 64.9 °F 78% 30.04 in 10.0 mi West 6.9 mph - N/A   Scattered Clouds
11:54 PM 70.0 °F - 64.0 °F 81% 30.04 in 10.0 mi West 4.6 mph - N/A   Clear